Location: Sternwarte auf dem Internationalen Platz Vogelsang IP
(50.5721°N, 6.4398°E)
Time: 21:30:15
(UTC+01:00)

ARIANE 6 FM1 Upper Stage - Visible Passes

Search period start: 10 November 2025 00:00
Search period end: 20 November 2025 00:00
Orbit: 523 x 612 km, 62.0° (Epoch: 08 November)

Date Brightness Start Highest point End Pass type
(mag) Time Alt. Az. Time Alt. Az. Time Alt. Az.
10 Nov 3.7 18:49:14 10° WSW 18:52:58 37° NNW 18:54:49 23° NNE visible
10 Nov 5.6 20:30:20 10° NW 20:30:52 12° NW 20:30:52 12° NW visible
11 Nov 4.0 18:50:15 10° W 18:53:48 30° NNW 18:55:34 21° NNE visible
11 Nov 5.7 20:31:25 10° NW 20:31:37 11° NW 20:31:37 11° NW visible
12 Nov 4.3 18:51:19 10° W 18:54:39 25° NNW 18:56:17 19° NNE visible
13 Nov 4.4 18:52:23 10° WNW 18:55:31 22° NNW 18:56:58 18° N visible
14 Nov 4.5 18:53:29 10° WNW 18:56:24 19° NNW 18:57:37 17° N visible
15 Nov 4.6 18:54:34 10° NW 18:57:18 17° NNW 18:58:14 16° N visible
16 Nov 4.6 18:55:36 10° NW 18:58:11 16° N 18:58:51 16° N visible
17 Nov 4.6 18:56:35 10° NW 18:59:06 16° N 18:59:26 16° N visible
18 Nov 4.3 17:16:27 10° WNW 17:19:41 23° NNW 17:22:54 10° NNE visible
18 Nov 4.6 18:57:29 10° NW 18:59:58 16° N 19:00:01 16° N visible
19 Nov 4.4 17:17:29 10° WNW 17:20:30 20° NNW 17:23:30 10° NNE visible
19 Nov 4.6 18:58:17 10° NW 19:00:35 16° N 19:00:35 16° N visible
